{"data":{"norad_id":63417,"intl_designator":"2025-065U","name":"STARLINK-33535","alt_names":[],"object_type":"PAYLOAD","status":"ACTIVE","operator":null,"country":"US","launch_date":"2025-03-31","launch_site_code":"AFETR","launch_vehicle":null,"mission":null,"orbit_class":"UNKNOWN","rcs_meters":null,"size_class":null,"mass_kg":null,"dimensions":null,"purposes":["comms"],"wikipedia_slug":null,"has_3d_model":false,"image_url":null,"decayed_at":null,"tle_current":{"epoch":"2026-09-20T05:40:14.318976Z","epoch_age_seconds":181683,"freshness":"STALE","line1":"1 63417U 25065U   26263.23627684  .00011567  00000+0  42904-3 0  9997","line2":"2 63417  43.0035  88.2817 0002018 260.5229  99.5394 15.27591015 82598","mean_motion":15.27591015,"eccentricity":0.0002018,"inclination_deg":43.0035,"raan_deg":88.2817,"arg_perigee_deg":260.5229,"mean_anomaly_deg":99.5394,"bstar":0.00042904,"rev_number":8259,"period_min":94.26606898444,"perigee_km":481.63153266694,"apogee_km":484.4006940635,"semimajor_km":6861.1531133652,"source":"CELESTRAK","updated_at":"2026-09-21T09:00:34.981424Z"}}}